SL-8 DEB *, 3931

Orbit data source: Space-Track

SL-8 DEB *, 3931 is space debris in LEO originally from a launch on Mon, 15 Mar 1965 UTC launched from the Tyuratam Missile And Space Complex (TTMTR). Debris objects in space refer to the collection of defunct objects orbiting the Earth. Examples of debris include non-operational satellites, rocket bodies, and fragments generated from explosions, collisions, or faulty payload assembly.

Loading next visibility...
Identifier
3931, 1965-020EV
Orbit
LEO
Country
Flag of CISCIS
Related business
Manufacturer
Unknown
Mission
Spacecraft
Bus & Motor
Unknown
Mass
Unknown
Launch date (UTC)
1965-03-15 (61 years ago)
Launch vehicle
Unknown
Launch site
Tyuratam Missile And Space Complex (TTMTR)
Object type
Payload
Rocket body
Debris
Shape & HBR
Unknown shape, 0.1 m
Radar Cross Section
Medium (>0.1 m² and <1 m²)

Expand to show TLE details & history
Last TLE update: 1 day ago

TLE from 1 day ago
0 SL-8 DEB *
1 03931U 65020EV  26193.31012392 -.00000091  00000-0  82633-5 0  9999
2 03931  56.0599 156.1691 0192530 117.3257  28.4926 12.35215334780260
Epoch: 2026-07-12T07:26Z
TLE epoch observation values (Epoch: 2026-07-12T07:26:34.706Z)
Latitude
27.01121°
Longitude
-85.64648°
Altitude
1,395.352 km
Speed
7.225 km/s
True Right ascension
21h 04m 50s
True Declination
26° 53' 01"
Sunlit
Object was in full shadow at epoch
Visualization orbit readout
Latitude
Unknown
Longitude
Unknown
Altitude
Unknown
Speed
Unknown
Apparent Right ascension
Unknown
Apparent Declination
Unknown
Sunlit
N/A
Visualization observer readout
Local Sidereal Time
21:36:37
Azimuth
Unknown
Elevation
Unknown
Doppler factor
Unknown
Orbital elements
Apogee altitude
1,678.969 km
Perigee altitude
1,374.582 km
Semi-major axis
7,904.912 km
Eccentricity
0.01925
Inclination
56.0599°
RAAN
156.1691°
Arg. of periapsis
117.3257°
True anomaly
29.56773°
Mean anomaly
28.4926°
Eccentric anomaly
29.02787°
Mean motion
3.08814 °/min
Orbital period
116.57 mins
BSTAR
0.0000082633
Loading maneuver chart data...
Computing Atmospheric mass density...
Loading historical data...
Loading historical data...
Loading historical data...
Loading historical data...
Loading historical data...
Loading historical data...
Loading historical data...

Documentation

Showing up to 5 results
|